Location: downtown San Diego
(32.7310°N, 117.1990°W)
Time: 17:17:58
(UTC-08:00)

Cosmos 2341 Rocket - Pass Details

Date: 12 July 2018
Orbit: 969 x 1004 km, 82.9° (Epoch: 15 December)

Event Time Altitude Azimuth Distance (km) Brightness Sun altitude
Rises 22:43:41 0° 351° (N) 3,734 8.0 -27.1°
Reaches altitude 10° 22:46:14 10° 350° (N) 2,780 7.2 -27.4°
Maximum altitude 22:52:35 73° 267° (W) 1,044 4.1 -28.2°
Enters shadow 22:53:35 62° 212° (SSW) 1,118 4.1 -28.3°
